Hourly Weather Smugi

Today, 24 January, Sunday

Time Temperature Precipitation Wind Pressure Humidity
00:00 +1°C° 0 mm 4 mps 728 mmHg 89%
01:00 +2°C° 0 mm 3 mps 728 mmHg 90%
02:00 +1°C° 0 mm 3 mps 728 mmHg 91%
03:00 +2°C° 0 mm 2 mps 727 mmHg 92%
04:00 +1°C° 0 mm 2 mps 727 mmHg 92%
05:00 +1°C° 0 mm 2 mps 727 mmHg 91%
06:00 +1°C° 0 mm 2 mps 727 mmHg 89%
07:00 -1°C° 0 mm 2 mps 727 mmHg 87%
08:00 -1°C° 0.6 mm 2 mps 727 mmHg 90%
09:00 -1°C° 0.6 mm 2 mps 727 mmHg 93%
10:00 -1°C° 0.6 mm 3 mps 727 mmHg 96%
11:00 -1°C° 0.5 mm 3 mps 727 mmHg 97%
12:00 -1°C° 0.5 mm 3 mps 727 mmHg 97%
13:00 -1°C° 0.5 mm 3 mps 726 mmHg 97%
14:00 -1°C° 0.7 mm 3 mps 727 mmHg 97%
15:00 -1°C° 0.7 mm 3 mps 727 mmHg 98%
16:00 -1°C° 0.7 mm 3 mps 727 mmHg 98%
17:00 -1°C° 0.1 mm 3 mps 727 mmHg 98%
18:00 -1°C° 0.1 mm 3 mps 728 mmHg 97%
19:00 -2°C° 0.1 mm 4 mps 728 mmHg 97%
20:00 -1°C° 0 mm 3 mps 728 mmHg 96%
21:00 -1°C° 0 mm 3 mps 728 mmHg 95%
22:00 -2°C° 0 mm 3 mps 729 mmHg 94%
23:00 -2°C° 0 mm 3 mps 729 mmHg 94%

Tomorrow, 25 January, Monday

Time Temperature Precipitation Wind Pressure Humidity
00:00 -2°C° 0 mm 2 mps 729 mmHg 94%
01:00 -2°C° 0 mm 2 mps 729 mmHg 94%
02:00 -2°C° 0 mm 2 mps 730 mmHg 94%
03:00 -2°C° 0 mm 2 mps 730 mmHg 94%
04:00 -2°C° 0 mm 2 mps 730 mmHg 94%
05:00 -1°C° 0 mm 1 mps 730 mmHg 94%
06:00 -1°C° 0 mm 1 mps 731 mmHg 94%
07:00 -1°C° 0 mm 1 mps 731 mmHg 95%
08:00 -1°C° 0 mm 1 mps 731 mmHg 93%
09:00 0°C° 0 mm 1 mps 731 mmHg 92%
10:00 0°C° 0 mm 1 mps 732 mmHg 90%
11:00 -2°C° 0 mm 2 mps 732 mmHg 91%
12:00 -1°C° 0 mm 3 mps 731 mmHg 91%
13:00 -2°C° 0 mm 4 mps 731 mmHg 92%
14:00 -2°C° 0 mm 4 mps 731 mmHg 91%
15:00 -2°C° 0 mm 4 mps 731 mmHg 91%
16:00 -3°C° 0 mm 4 mps 731 mmHg 90%
17:00 -4°C° 0 mm 5 mps 731 mmHg 90%
18:00 -4°C° 0 mm 5 mps 732 mmHg 90%
19:00 -4°C° 0 mm 6 mps 732 mmHg 91%
20:00 -4°C° 0.1 mm 7 mps 731 mmHg 89%
21:00 -4°C° 0.1 mm 7 mps 731 mmHg 88%
22:00 -5°C° 0.1 mm 8 mps 731 mmHg 86%
23:00 -5°C° 0.1 mm 8 mps 731 mmHg 85%

Day after tomorrow, 26 January, Tuesday

Time Temperature Precipitation Wind Pressure Humidity
00:00 -5°C° 0.1 mm 8 mps 731 mmHg 84%
01:00 -5°C° 0.1 mm 8 mps 731 mmHg 83%
02:00 -5°C° 0 mm 8 mps 730 mmHg 84%
03:00 -6°C° 0 mm 9 mps 730 mmHg 84%
04:00 -6°C° 0 mm 9 mps 730 mmHg 84%
05:00 -6°C° 0 mm 9 mps 730 mmHg 85%
06:00 -6°C° 0 mm 9 mps 730 mmHg 86%
07:00 -6°C° 0 mm 9 mps 730 mmHg 87%
08:00 -5°C° 0 mm 9 mps 731 mmHg 87%
09:00 -5°C° 0 mm 9 mps 731 mmHg 87%
10:00 -5°C° 0 mm 9 mps 731 mmHg 87%
11:00 -5°C° 0.1 mm 10 mps 731 mmHg 86%
12:00 -5°C° 0.1 mm 10 mps 732 mmHg 85%
13:00 -4°C° 0.1 mm 10 mps 732 mmHg 84%
14:00 -5°C° 0.2 mm 10 mps 732 mmHg 87%
15:00 -5°C° 0.2 mm 9 mps 733 mmHg 89%
16:00 -5°C° 0.2 mm 9 mps 733 mmHg 92%
17:00 -5°C° 0.1 mm 9 mps 733 mmHg 90%
18:00 -5°C° 0.1 mm 9 mps 734 mmHg 88%
19:00 -5°C° 0.1 mm 9 mps 734 mmHg 85%
20:00 -5°C° 0 mm 8 mps 734 mmHg 88%
21:00 -5°C° 0 mm 8 mps 734 mmHg 90%
22:00 -5°C° 0 mm 8 mps 735 mmHg 93%
23:00 -5°C° 0.1 mm 8 mps 735 mmHg 90%

27 January, Wednesday

Time Temperature Precipitation Wind Pressure Humidity
00:00 -5°C° 0.1 mm 8 mps 735 mmHg 88%
01:00 -5°C° 0.1 mm 8 mps 735 mmHg 86%
02:00 -6°C° 0 mm 8 mps 735 mmHg 86%
03:00 -6°C° 0 mm 8 mps 735 mmHg 85%
04:00 -6°C° 0 mm 7 mps 735 mmHg 85%
05:00 -6°C° 0 mm 7 mps 735 mmHg 86%
06:00 -5°C° 0 mm 6 mps 736 mmHg 87%
07:00 -6°C° 0 mm 6 mps 736 mmHg 87%
08:00 -5°C° 0 mm 6 mps 736 mmHg 87%
09:00 -5°C° 0 mm 6 mps 736 mmHg 86%
10:00 -4°C° 0 mm 6 mps 736 mmHg 86%
11:00 -4°C° 0 mm 5 mps 736 mmHg 85%
12:00 -2°C° 0 mm 5 mps 736 mmHg 83%
13:00 -2°C° 0 mm 5 mps 736 mmHg 82%
14:00 -2°C° 0 mm 4 mps 736 mmHg 83%
15:00 -3°C° 0 mm 4 mps 737 mmHg 84%
16:00 -2°C° 0 mm 3 mps 737 mmHg 85%
17:00 -2°C° 0 mm 3 mps 737 mmHg 86%
18:00 -4°C° 0 mm 3 mps 737 mmHg 87%
19:00 -4°C° 0 mm 3 mps 737 mmHg 88%
20:00 -5°C° 0 mm 3 mps 737 mmHg 88%
21:00 -5°C° 0 mm 3 mps 738 mmHg 89%
22:00 -5°C° 0 mm 3 mps 738 mmHg 89%
23:00 -4°C° 0 mm 2 mps 738 mmHg 91%

28 January, Thursday

Time Temperature Precipitation Wind Pressure Humidity
00:00 -4°C° 0 mm 2 mps 738 mmHg 93%
01:00 -4°C° 0 mm 2 mps 738 mmHg 94%
02:00 -4°C° 0 mm 2 mps 738 mmHg 95%
03:00 -4°C° 0 mm 2 mps 738 mmHg 95%
04:00 -4°C° 0 mm 2 mps 738 mmHg 95%
05:00 -4°C° 0 mm 2 mps 738 mmHg 95%
06:00 -4°C° 0 mm 2 mps 738 mmHg 95%
07:00 -4°C° 0 mm 2 mps 739 mmHg 95%
08:00 -3°C° 0 mm 2 mps 739 mmHg 94%
09:00 -3°C° 0 mm 2 mps 738 mmHg 93%
10:00 -2°C° 0 mm 3 mps 738 mmHg 91%
11:00 -2°C° 0.1 mm 3 mps 738 mmHg 89%
12:00 -2°C° 0.1 mm 3 mps 738 mmHg 87%
13:00 -1°C° 0.1 mm 3 mps 738 mmHg 85%
14:00 -2°C° 0 mm 2 mps 738 mmHg 85%
15:00 -2°C° 0 mm 2 mps 737 mmHg 85%
16:00 -1°C° 0 mm 1 mps 737 mmHg 85%
17:00 -1°C° 0 mm 1 mps 737 mmHg 86%
18:00 -2°C° 0 mm 1 mps 737 mmHg 87%
19:00 -2°C° 0 mm 1 mps 737 mmHg 89%

29 January, Friday

Time Temperature Precipitation Wind Pressure Humidity
Show more